"Period start","avg(HW err(1)/warn(2) (#))","avg(Visibility (m))","avg(Weather code (#))","avg(Precip intensity (mm/h))","min(HW err(1)/warn(2) (#))","max(HW err(1)/warn(2) (#))","std(HW err(1)/warn(2) (#))","med(HW err(1)/warn(2) (#))","min(Visibility (m))","max(Visibility (m))","std(Visibility (m))","med(Visibility (m))","min(Weather code (#))","max(Weather code (#))","std(Weather code (#))","med(Weather code (#))","min(Precip intensity (mm/h))","max(Precip intensity (mm/h))","std(Precip intensity (mm/h))","med(Precip intensity (mm/h))"
2017-07-07 00:00:00,2,47457,0,0.00,2,2,0,2,39782,50000,3453,49778,0,0,0,0,0.00,0.00,0.00,0.00
2017-07-07 00:10:00,2,48821,0,0.00,2,2,0,2,42038,50000,2515,50000,0,0,0,0,0.00,0.00,0.00,0.00
2017-07-07 00:20:00,2,48829,0,0.00,2,2,0,2,43936,50000,1983,50000,0,0,0,0,0.00,0.00,0.00,0.00
2017-07-07 00:30:00,2,46952,0,0.00,2,2,0,2,40335,50000,3917,49470,0,0,0,0,0.00,0.00,0.00,0.00
2017-07-07 00:40:00,2,47633,0,0.00,2,2,0,2,42249,50000,2752,48747,0,0,0,0,0.00,0.00,0.00,0.00
2017-07-07 00:50:00,2,49835,0,0.00,2,2,0,2,48347,50000,496,50000,0,0,0,0,0.00,0.00,0.00,0.00
2017-07-07 01:00:00,2,27758,29,0.48,2,2,0,2,8603,48806,13711,22252,0,52,24,40,0.00,1.30,0.50,0.40
2017-07-07 01:10:00,2,38094,51,0.47,2,2,0,2,24499,50000,8109,40296,51,52,0,51,0.15,1.05,0.28,0.38
2017-07-07 01:20:00,2,46296,51,0.23,2,2,0,2,33705,50000,5412,49364,51,51,0,51,0.05,1.10,0.30,0.10
2017-07-07 01:30:00,2,49444,51,0.11,2,2,0,2,46601,50000,1093,50000,51,51,0,51,0.05,0.20,0.05,0.10
2017-07-07 01:40:00,2,49663,51,0.39,2,2,0,2,46932,50000,915,50000,51,51,0,51,0.10,1.40,0.36,0.30
2017-07-07 01:50:00,2,49228,15,0.02,2,2,0,2,42285,50000,2314,50000,0,51,23,0,0.00,0.10,0.04,0.00
2017-07-07 02:00:00,2,48444,0,0.00,2,2,0,2,43093,50000,2469,50000,0,0,0,0,0.00,0.00,0.00,0.00
2017-07-07 02:10:00,2,47782,0,0.00,2,2,0,2,43881,50000,2354,48857,0,0,0,0,0.00,0.00,0.00,0.00
2017-07-07 02:20:00,2,46978,0,0.00,2,2,0,2,42832,50000,2990,47326,0,0,0,0,0.00,0.00,0.00,0.00
2017-07-07 02:30:00,2,42609,17,0.19,2,2,0,2,27947,50000,7384,43226,0,51,21,0,0.00,1.25,0.39,0.00
2017-07-07 02:40:00,2,44034,6,0.01,2,2,0,2,18148,50000,9974,49068,0,61,18,0,0.00,0.05,0.02,0.00
2017-07-07 02:50:00,2,35384,57,2.96,2,2,0,2,11925,50000,15121,41156,51,62,5,61,0.00,13.50,4.42,0.20
2017-07-07 03:00:00,2,36136,0,0.00,2,2,0,2,10256,50000,15071,42818,0,0,0,0,0.00,0.00,0.00,0.00
2017-07-07 03:10:00,2,40521,0,0.00,2,2,0,2,23124,50000,9395,42990,0,0,0,0,0.00,0.00,0.00,0.00
2017-07-07 03:20:00,2,45185,0,0.00,2,2,0,2,38032,50000,4903,47201,0,0,0,0,0.00,0.00,0.00,0.00
2017-07-07 03:30:00,2,48407,0,0.00,2,2,0,2,41216,50000,3207,50000,0,0,0,0,0.00,0.00,0.00,0.00
2017-07-07 03:40:00,2,49091,0,0.00,2,2,0,2,41511,50000,2533,50000,0,0,0,0,0.00,0.00,0.00,0.00
2017-07-07 03:50:00,2,49714,0,0.00,2,2,0,2,47145,50000,856,50000,0,0,0,0,0.00,0.00,0.00,0.00
2017-07-07 04:00:00,2,46084,0,0.00,2,2,0,2,40356,50000,3539,47983,0,0,0,0,0.00,0.00,0.00,0.00
2017-07-07 04:10:00,1,46494,0,0.00,0,2,1,2,41249,50000,2979,47011,0,0,0,0,0.00,0.00,0.00,0.00
2017-07-07 04:20:00,1,46110,0,0.00,0,2,1,1,36330,50000,4726,47921,0,0,0,0,0.00,0.00,0.00,0.00
2017-07-07 04:30:00,1,47942,0,0.00,0,2,1,0,40931,50000,3372,50000,0,0,0,0,0.00,0.00,0.00,0.00
2017-07-07 04:40:00,2,46112,0,0.00,2,2,0,2,33730,50000,4699,47036,0,0,0,0,0.00,0.00,0.00,0.00
2017-07-07 04:50:00,1,30902,18,0.89,0,2,1,2,14080,50000,12387,32770,0,61,28,0,0.00,5.75,1.77,0.00
2017-07-07 05:00:00,2,36205,61,1.81,2,2,0,2,19446,50000,10777,34911,61,61,0,61,0.00,7.25,2.47,0.43
2017-07-07 05:10:00,2,39957,12,0.15,2,2,0,2,6670,50000,15037,46380,0,61,24,0,0.00,1.40,0.42,0.00
2017-07-07 05:20:00,2,23042,61,4.85,2,2,0,2,8606,50000,12583,20164,61,62,0,61,0.70,11.25,3.48,3.62
2017-07-07 05:30:00,2,42887,49,0.08,2,2,0,2,25160,50000,7389,45392,0,61,24,61,0.00,0.40,0.11,0.05
2017-07-07 05:40:00,2,46287,0,0.00,2,2,0,2,39052,50000,3811,46494,0,0,0,0,0.00,0.00,0.00,0.00
2017-07-07 05:50:00,2,49561,0,0.00,2,2,0,2,45880,50000,1229,50000,0,0,0,0,0.00,0.00,0.00,0.00
2017-07-07 06:00:00,2,27853,55,1.38,2,2,0,2,7644,45381,14364,30114,0,61,18,61,0.00,7.15,2.02,0.68
2017-07-07 06:10:00,2,42662,21,0.02,2,2,0,2,26843,50000,8743,46836,0,61,26,0,0.00,0.10,0.03,0.00
2017-07-07 06:20:00,2,47951,0,0.00,2,2,0,2,37182,50000,3791,49739,0,0,0,0,0.00,0.00,0.00,0.00
2017-07-07 06:30:00,2,34429,22,0.20,0,2,1,2,12471,50000,14936,36066,0,61,28,0,0.00,0.95,0.30,0.00
2017-07-07 06:40:00,2,49512,0,0.00,2,2,0,2,47901,50000,786,50000,0,0,0,0,0.00,0.00,0.00,0.00
2017-07-07 06:50:00,2,49753,0,0.00,2,2,0,2,49067,50000,383,50000,0,0,0,0,0.00,0.00,0.00,0.00
2017-07-07 07:00:00,2,48312,0,0.00,2,2,0,2,43973,50000,2507,49916,0,0,0,0,0.00,0.00,0.00,0.00
2017-07-07 07:10:00,1,50000,0,0.00,0,2,1,0,50000,50000,0,50000,0,0,0,0,0.00,0.00,0.00,0.00
2017-07-07 07:20:00,1,50000,0,0.00,0,2,1,2,50000,50000,0,50000,0,0,0,0,0.00,0.00,0.00,0.00
2017-07-07 07:30:00,2,50000,0,0.00,2,2,0,2,50000,50000,0,50000,0,0,0,0,0.00,0.00,0.00,0.00
2017-07-07 07:40:00,2,50000,0,0.00,2,2,0,2,50000,50000,0,50000,0,0,0,0,0.00,0.00,0.00,0.00
2017-07-07 07:50:00,2,49962,0,0.00,2,2,0,2,49744,50000,81,50000,0,0,0,0,0.00,0.00,0.00,0.00
2017-07-07 08:00:00,1,50000,0,0.00,0,2,1,2,50000,50000,0,50000,0,0,0,0,0.00,0.00,0.00,0.00
2017-07-07 08:10:00,0,50000,0,0.00,0,0,0,0,50000,50000,0,50000,0,0,0,0,0.00,0.00,0.00,0.00
2017-07-07 08:20:00,0,50000,0,0.00,0,0,0,0,50000,50000,0,50000,0,0,0,0,0.00,0.00,0.00,0.00
2017-07-07 08:30:00,0,49932,0,0.00,0,0,0,0,49323,50000,203,50000,0,0,0,0,0.00,0.00,0.00,0.00
2017-07-07 08:40:00,0,48835,0,0.00,0,0,0,0,43879,50000,2025,50000,0,0,0,0,0.00,0.00,0.00,0.00
2017-07-07 08:50:00,0,49722,0,0.00,0,0,0,0,47761,50000,673,50000,0,0,0,0,0.00,0.00,0.00,0.00
2017-07-07 09:00:00,0,44206,17,0.04,0,0,0,0,30382,50000,6628,46852,0,61,27,0,0.00,0.20,0.07,0.00
2017-07-07 09:10:00,1,35394,56,1.26,0,2,1,2,15728,50000,13210,37964,51,61,5,56,0.05,3.80,1.26,0.92
2017-07-07 09:20:00,1,48783,18,0.03,0,2,1,2,41643,50000,2470,50000,0,61,28,0,0.00,0.30,0.09,0.00
2017-07-07 09:30:00,0,49240,0,0.00,0,0,0,0,46562,50000,1212,50000,0,0,0,0,0.00,0.00,0.00,0.00
2017-07-07 09:40:00,0,49339,0,0.00,0,0,0,0,44569,50000,1607,50000,0,0,0,0,0.00,0.00,0.00,0.00
2017-07-07 09:50:00,0,49432,0,0.00,0,0,0,0,45759,50000,1298,50000,0,0,0,0,0.00,0.00,0.00,0.00
2017-07-07 10:00:00,0,49156,0,0.00,0,0,0,0,42581,50000,2202,50000,0,0,0,0,0.00,0.00,0.00,0.00
2017-07-07 10:10:00,0,49863,0,0.00,0,0,0,0,48632,50000,410,50000,0,0,0,0,0.00,0.00,0.00,0.00
2017-07-07 10:20:00,0,50000,0,0.00,0,0,0,0,50000,50000,0,50000,0,0,0,0,0.00,0.00,0.00,0.00
2017-07-07 10:30:00,0,50000,0,0.00,0,0,0,0,50000,50000,0,50000,0,0,0,0,0.00,0.00,0.00,0.00
2017-07-07 10:40:00,0,49777,0,0.00,0,0,0,0,47768,50000,670,50000,0,0,0,0,0.00,0.00,0.00,0.00
2017-07-07 10:50:00,0,49022,0,0.00,0,0,0,0,43982,50000,1903,50000,0,0,0,0,0.00,0.00,0.00,0.00
2017-07-07 11:00:00,0,50000,0,0.00,0,0,0,0,50000,50000,0,50000,0,0,0,0,0.00,0.00,0.00,0.00
2017-07-07 11:10:00,0,50000,0,0.00,0,0,0,0,50000,50000,0,50000,0,0,0,0,0.00,0.00,0.00,0.00
2017-07-07 11:20:00,0,49656,0,0.00,0,0,0,0,46562,50000,1031,50000,0,0,0,0,0.00,0.00,0.00,0.00
2017-07-07 11:30:00,0,49939,0,0.00,0,0,0,0,49461,50000,161,50000,0,0,0,0,0.00,0.00,0.00,0.00
2017-07-07 11:40:00,0,50000,0,0.00,0,0,0,0,50000,50000,0,50000,0,0,0,0,0.00,0.00,0.00,0.00
2017-07-07 11:50:00,0,50000,0,0.00,0,0,0,0,50000,50000,0,50000,0,0,0,0,0.00,0.00,0.00,0.00
2017-07-07 12:00:00,0,49870,0,0.00,0,0,0,0,48695,50000,392,50000,0,0,0,0,0.00,0.00,0.00,0.00
2017-07-07 12:10:00,0,50000,0,0.00,0,0,0,0,50000,50000,0,50000,0,0,0,0,0.00,0.00,0.00,0.00
2017-07-07 12:20:00,0,50000,0,0.00,0,0,0,0,50000,50000,0,50000,0,0,0,0,0.00,0.00,0.00,0.00
2017-07-07 12:30:00,0,50000,0,0.00,0,0,0,0,50000,50000,0,50000,0,0,0,0,0.00,0.00,0.00,0.00
2017-07-07 12:40:00,0,49984,0,0.00,0,0,0,0,49837,50000,49,50000,0,0,0,0,0.00,0.00,0.00,0.00
2017-07-07 12:50:00,0,50000,0,0.00,0,0,0,0,50000,50000,0,50000,0,0,0,0,0.00,0.00,0.00,0.00
2017-07-07 13:00:00,0,50000,0,0.00,0,0,0,0,50000,50000,0,50000,0,0,0,0,0.00,0.00,0.00,0.00
2017-07-07 13:10:00,0,50000,0,0.00,0,0,0,0,50000,50000,0,50000,0,0,0,0,0.00,0.00,0.00,0.00
2017-07-07 13:20:00,0,50000,0,0.00,0,0,0,0,50000,50000,0,50000,0,0,0,0,0.00,0.00,0.00,0.00
2017-07-07 13:30:00,0,50000,0,0.00,0,0,0,0,50000,50000,0,50000,0,0,0,0,0.00,0.00,0.00,0.00
2017-07-07 13:40:00,0,50000,0,0.00,0,0,0,0,50000,50000,0,50000,0,0,0,0,0.00,0.00,0.00,0.00
2017-07-07 13:50:00,0,50000,0,0.00,0,0,0,0,50000,50000,0,50000,0,0,0,0,0.00,0.00,0.00,0.00
2017-07-07 14:00:00,0,50000,0,0.00,0,0,0,0,50000,50000,0,50000,0,0,0,0,0.00,0.00,0.00,0.00
2017-07-07 14:10:00,0,50000,0,0.00,0,0,0,0,50000,50000,0,50000,0,0,0,0,0.00,0.00,0.00,0.00
2017-07-07 14:20:00,0,49962,0,0.00,0,0,0,0,49615,50000,116,50000,0,0,0,0,0.00,0.00,0.00,0.00
2017-07-07 14:30:00,0,50000,0,0.00,0,0,0,0,50000,50000,0,50000,0,0,0,0,0.00,0.00,0.00,0.00
2017-07-07 14:40:00,0,50000,0,0.00,0,0,0,0,50000,50000,0,50000,0,0,0,0,0.00,0.00,0.00,0.00
2017-07-07 14:50:00,0,49960,0,0.00,0,0,0,0,49603,50000,119,50000,0,0,0,0,0.00,0.00,0.00,0.00
2017-07-07 15:00:00,0,50000,0,0.00,0,0,0,0,50000,50000,0,50000,0,0,0,0,0.00,0.00,0.00,0.00
2017-07-07 15:10:00,0,50000,0,0.00,0,0,0,0,50000,50000,0,50000,0,0,0,0,0.00,0.00,0.00,0.00
2017-07-07 15:20:00,0,50000,0,0.00,0,0,0,0,50000,50000,0,50000,0,0,0,0,0.00,0.00,0.00,0.00
2017-07-07 15:30:00,0,50000,0,0.00,0,0,0,0,50000,50000,0,50000,0,0,0,0,0.00,0.00,0.00,0.00
2017-07-07 15:40:00,0,46492,23,0.24,0,0,0,0,33378,50000,5834,50000,0,51,24,20,0.00,0.85,0.32,0.03
2017-07-07 15:50:00,0,46277,51,0.30,0,0,0,0,37777,50000,4271,47517,51,52,0,51,0.05,0.65,0.17,0.30
2017-07-07 16:00:00,0,49354,5,0.00,0,0,0,0,44058,50000,1772,50000,0,51,15,0,0.00,0.00,0.00,0.00
2017-07-07 16:10:00,0,50000,0,0.00,0,0,0,0,50000,50000,0,50000,0,0,0,0,0.00,0.00,0.00,0.00
2017-07-07 16:20:00,0,50000,0,0.00,0,0,0,0,50000,50000,0,50000,0,0,0,0,0.00,0.00,0.00,0.00
2017-07-07 16:30:00,0,50000,0,0.00,0,0,0,0,50000,50000,0,50000,0,0,0,0,0.00,0.00,0.00,0.00
2017-07-07 16:40:00,0,50000,0,0.00,0,0,0,0,50000,50000,0,50000,0,0,0,0,0.00,0.00,0.00,0.00
2017-07-07 16:50:00,0,49702,0,0.00,0,0,0,0,48426,50000,597,50000,0,0,0,0,0.00,0.00,0.00,0.00
2017-07-07 17:00:00,0,50000,0,0.00,0,0,0,0,50000,50000,0,50000,0,0,0,0,0.00,0.00,0.00,0.00
2017-07-07 17:10:00,0,50000,0,0.00,0,0,0,0,50000,50000,0,50000,0,0,0,0,0.00,0.00,0.00,0.00
2017-07-07 17:20:00,0,50000,0,0.00,0,0,0,0,50000,50000,0,50000,0,0,0,0,0.00,0.00,0.00,0.00
2017-07-07 17:30:00,0,50000,0,0.00,0,0,0,0,50000,50000,0,50000,0,0,0,0,0.00,0.00,0.00,0.00
2017-07-07 17:40:00,0,50000,0,0.00,0,0,0,0,50000,50000,0,50000,0,0,0,0,0.00,0.00,0.00,0.00
2017-07-07 17:50:00,0,50000,0,0.00,0,0,0,0,50000,50000,0,50000,0,0,0,0,0.00,0.00,0.00,0.00
2017-07-07 18:00:00,0,50000,0,0.00,0,0,0,0,50000,50000,0,50000,0,0,0,0,0.00,0.00,0.00,0.00
2017-07-07 18:10:00,0,49925,0,0.00,0,0,0,0,49248,50000,226,50000,0,0,0,0,0.00,0.00,0.00,0.00
2017-07-07 18:20:00,0,50000,0,0.00,0,0,0,0,50000,50000,0,50000,0,0,0,0,0.00,0.00,0.00,0.00
2017-07-07 18:30:00,0,50000,0,0.00,0,0,0,0,50000,50000,0,50000,0,0,0,0,0.00,0.00,0.00,0.00
2017-07-07 18:40:00,0,50000,0,0.00,0,0,0,0,50000,50000,0,50000,0,0,0,0,0.00,0.00,0.00,0.00
2017-07-07 18:50:00,0,50000,0,0.00,0,0,0,0,50000,50000,0,50000,0,0,0,0,0.00,0.00,0.00,0.00
2017-07-07 19:00:00,0,50000,0,0.00,0,0,0,0,50000,50000,0,50000,0,0,0,0,0.00,0.00,0.00,0.00
2017-07-07 19:10:00,0,50000,0,0.00,0,0,0,0,50000,50000,0,50000,0,0,0,0,0.00,0.00,0.00,0.00
2017-07-07 19:20:00,0,50000,0,0.00,0,0,0,0,50000,50000,0,50000,0,0,0,0,0.00,0.00,0.00,0.00
2017-07-07 19:30:00,0,50000,0,0.00,0,0,0,0,50000,50000,0,50000,0,0,0,0,0.00,0.00,0.00,0.00
2017-07-07 19:40:00,0,50000,0,0.00,0,0,0,0,50000,50000,0,50000,0,0,0,0,0.00,0.00,0.00,0.00
2017-07-07 19:50:00,0,50000,0,0.00,0,0,0,0,50000,50000,0,50000,0,0,0,0,0.00,0.00,0.00,0.00
2017-07-07 20:00:00,0,49638,0,0.00,0,0,0,0,47192,50000,851,50000,0,0,0,0,0.00,0.00,0.00,0.00
2017-07-07 20:10:00,0,50000,0,0.00,0,0,0,0,50000,50000,0,50000,0,0,0,0,0.00,0.00,0.00,0.00
2017-07-07 20:20:00,0,49889,0,0.00,0,0,0,0,49146,50000,259,50000,0,0,0,0,0.00,0.00,0.00,0.00
2017-07-07 20:30:00,0,49962,0,0.00,0,0,0,0,49625,50000,112,50000,0,0,0,0,0.00,0.00,0.00,0.00
2017-07-07 20:40:00,0,50000,0,0.00,0,0,0,0,50000,50000,0,50000,0,0,0,0,0.00,0.00,0.00,0.00
2017-07-07 20:50:00,0,49813,0,0.00,0,0,0,0,48990,50000,376,50000,0,0,0,0,0.00,0.00,0.00,0.00
2017-07-07 21:00:00,0,49772,0,0.00,0,0,0,0,48428,50000,496,50000,0,0,0,0,0.00,0.00,0.00,0.00
2017-07-07 21:10:00,0,49641,0,0.00,0,0,0,0,48431,50000,541,49966,0,0,0,0,0.00,0.00,0.00,0.00
2017-07-07 21:20:00,0,49492,0,0.00,0,0,0,0,44919,50000,1524,50000,0,0,0,0,0.00,0.00,0.00,0.00
2017-07-07 21:30:00,0,50000,0,0.00,0,0,0,0,50000,50000,0,50000,0,0,0,0,0.00,0.00,0.00,0.00
2017-07-07 21:40:00,0,47409,0,0.00,0,0,0,0,41303,50000,3012,49006,0,0,0,0,0.00,0.00,0.00,0.00
2017-07-07 21:50:00,0,48765,0,0.00,0,0,0,0,43485,50000,1934,49624,0,0,0,0,0.00,0.00,0.00,0.00
2017-07-07 22:00:00,0,49804,0,0.00,0,0,0,0,48612,50000,433,50000,0,0,0,0,0.00,0.00,0.00,0.00
2017-07-07 22:10:00,0,49864,0,0.00,0,0,0,0,48641,50000,408,50000,0,0,0,0,0.00,0.00,0.00,0.00
2017-07-07 22:20:00,0,45523,0,0.00,0,0,0,0,26476,50000,7500,49996,0,0,0,0,0.00,0.00,0.00,0.00
2017-07-07 22:30:00,2,45100,0,0.00,0,2,1,2,37629,50000,4462,45546,0,0,0,0,0.00,0.00,0.00,0.00
2017-07-07 22:40:00,0,48884,0,0.00,0,2,1,0,45552,50000,1441,49764,0,0,0,0,0.00,0.00,0.00,0.00
2017-07-07 22:50:00,0,46470,0,0.00,0,2,1,0,38985,50000,4254,49433,0,0,0,0,0.00,0.00,0.00,0.00
2017-07-07 23:00:00,0,49671,0,0.00,0,0,0,0,47609,50000,713,50000,0,0,0,0,0.00,0.00,0.00,0.00
2017-07-07 23:10:00,2,42424,0,0.00,0,2,1,2,31372,50000,5774,43120,0,0,0,0,0.00,0.00,0.00,0.00
2017-07-07 23:20:00,0,49764,0,0.00,0,0,0,0,48510,50000,492,50000,0,0,0,0,0.00,0.00,0.00,0.00
2017-07-07 23:30:00,1,43363,0,0.00,0,2,1,0,32607,50000,5689,44440,0,0,0,0,0.00,0.00,0.00,0.00
2017-07-07 23:40:00,1,35956,0,0.00,0,2,1,1,15460,50000,12688,38426,0,0,0,0,0.00,0.00,0.00,0.00
2017-07-07 23:50:00,2,41627,0,0.00,0,2,1,2,26607,50000,7243,42220,0,0,0,0,0.00,0.00,0.00,0.00
